Home > Weather > Gröbming > Past weeks

Flag for Austria Weather for the Past 2 Weeks in Gröbming, Styria, Austria

Now
33 °F

Scattered clouds.


Feels Like: N/A
Forecast: 22 / 44 °F
Wind: N/A

Location: Aigen Im Ennstal

Current Time: Feb 12, 2016 at 2:21:14 PM

Latest Report: Feb 12, 2016 at 1:00 PM


Visibility: 28 mi

Pressure: 29.68 "Hg (26.96 "Hg at 769m altitude)

Humidity: 70%

Dew point: 24 °F

Location of GröbmingLocation

Historic Weather in Gröbming — Graph

°F

Gröbming Temperature Yesterday

Maximum temperature yesterday: 40 °F (at 4:00 PM)
Minimum temperature yesterday: 18 °F (at 11:00 PM)
Average temperature yesterday: 32 °F

High & Low Weather Summary for the Past Weeks

 TemperatureHumidityPressure
High53 °F (Feb 1, 10:00 AM)99% (Feb 6, 7:00 PM)30.55 "Hg (Feb 6, 7:00 PM)
Low15 °F (Feb 12, 4:00 AM)54% (Feb 11, 2:00 PM)29.32 "Hg (Feb 10, 12:00 AM)
Average35 °F85%30.08 "Hg
* Reported Jan 28 1:00 PM — Feb 12 1:00 PM, Gröbming, Weather by CustomWeather, © 2016

Note: Actual official high and low records may vary slightly from our data, if they occured in-between our weather recording intervals... More about our weather records

Advertising

Gröbming Weather History for the Previous 24 Hours

 ConditionsComfort  
Time TempWeatherWind HumidityBarometerVisibility
1:00 PM
Fri, Feb 12
33 °FScattered clouds.N/A70%29.68 "Hg28 mi
12:00 PM27 °FChilly.No wind82%29.76 "HgN/A
11:00 AM25 °FChilly.1 mph89%29.80 "HgN/A
10:00 AM23 °FPartly sunny.N/A90%29.83 "Hg19 mi
9:00 AM20 °FCold.No wind88%29.87 "HgN/A
8:00 AM18 °FCold.1 mph91%29.89 "HgN/A
7:00 AM18 °FFog.No wind91%29.88 "Hg1 mi
5:00 AM19 °FCold.1 mph91%29.89 "HgN/A
4:00 AM15 °FCold.No wind90%29.92 "HgN/A
3:00 AM19 °FCold.1 mph91%29.90 "HgN/A
2:00 AM21 °FCold.1 mph92%29.89 "HgN/A
11:00 PM
Thu, Feb 11
18 °FCold.1 mph87%29.92 "HgN/A
10:00 PM23 °FOvercast.No wind93%29.89 "Hg12 mi
9:00 PM24 °FCold.No wind92%29.90 "HgN/A
8:00 PM27 °FChilly.1 mph89%29.88 "HgN/A
7:00 PM29 °FClear.N/A83%29.85 "Hg25 mi
6:00 PM31 °FChilly.No wind78%29.84 "HgN/A
5:00 PM37 °FChilly.No wind63%29.80 "HgN/A
4:00 PM40 °FPassing clouds.N/A54%29.78 "Hg25 mi
3:00 PM37 °FChilly.3 mph57%29.81 "HgN/A
2:00 PM39 °FChilly.3 mph54%29.80 "HgN/A
Weather by CustomWeather, © 2016

See weather overviewHow to use our weather pages